Time,TemperatureF,DewpointF,PressureIn,WindDirection,WindDirectionDegrees,WindSpeedMPH,WindSpeedGustMPH,Humidity,HourlyPrecipIn,Conditions,Clouds,dailyrainin,SolarRadiationWatts/m^2,SoftwareType,DateUTC
2013-01-19 00:00:00,69.7,58.3,30.13,ESE,108,0.0,3.0,67,0.00,,SCT040,0.00,0.00,VWS V14.00,2013-01-19 05:00:00,
2013-01-19 00:01:00,69.7,58.3,30.13,ESE,108,1.0,1.0,67,0.00,,SCT040,0.00,0.00,VWS V14.00,2013-01-19 05:01:00,
2013-01-19 00:02:00,69.7,58.3,30.13,ESE,108,3.0,6.0,67,0.00,,SCT040,0.00,0.00,VWS V14.00,2013-01-19 05:02:00,
2013-01-19 00:04:00,69.7,58.3,30.13,ESE,108,1.0,3.0,67,0.00,,SCT040,0.00,0.00,VWS V14.00,2013-01-19 05:04:00,
2013-01-19 00:09:00,69.6,58.2,30.13,ESE,108,0.0,1.0,67,0.00,,SCT040,0.00,0.00,VWS V14.00,2013-01-19 05:09:00,
2013-01-19 00:14:00,69.6,58.2,30.12,ESE,109,3.0,5.0,67,0.00,,SCT040,0.00,0.00,VWS V14.00,2013-01-19 05:14:00,
2013-01-19 00:19:00,69.5,58.5,30.12,ESE,109,0.0,2.0,68,0.00,,SCT040,0.00,0.00,VWS V14.00,2013-01-19 05:19:00,
2013-01-19 00:24:00,69.5,58.5,30.12,ESE,109,2.0,5.0,68,0.00,,SCT040,0.00,0.00,VWS V14.00,2013-01-19 05:24:00,
2013-01-19 00:29:00,69.5,58.9,30.12,ESE,110,4.0,6.0,69,0.00,,SCT040,0.00,0.00,VWS V14.00,2013-01-19 05:29:00,
2013-01-19 00:34:00,69.6,59.0,30.12,ESE,110,0.0,1.0,69,0.00,,SCT040,0.00,0.00,VWS V14.00,2013-01-19 05:34:00,
2013-01-19 00:39:00,69.6,59.0,30.12,ESE,111,3.0,4.0,69,0.00,,SCT040,0.00,0.00,VWS V14.00,2013-01-19 05:39:00,
2013-01-19 00:44:00,69.6,59.4,30.12,ESE,112,0.0,6.0,70,0.00,,SCT040,0.00,0.00,VWS V14.00,2013-01-19 05:44:00,
2013-01-19 00:49:00,69.6,59.8,30.12,ESE,112,1.0,6.0,71,0.00,,SCT040,0.00,0.00,VWS V14.00,2013-01-19 05:49:00,
2013-01-19 00:54:00,69.6,59.8,30.12,ESE,112,1.0,4.0,71,0.00,,SCT040,0.00,0.00,VWS V14.00,2013-01-19 05:54:00,
2013-01-19 00:59:00,69.6,59.8,30.12,ESE,112,0.0,0.0,71,0.00,,SCT040,0.00,0.00,VWS V14.00,2013-01-19 05:59:00,
2013-01-19 01:04:00,69.5,60.1,30.12,ESE,112,1.0,3.0,72,0.00,,SCT040,0.00,0.00,VWS V14.00,2013-01-19 06:04:00,
2013-01-19 01:09:00,69.5,60.1,30.12,ESE,112,2.0,5.0,72,0.00,,SCT040,0.00,0.00,VWS V14.00,2013-01-19 06:09:00,
2013-01-19 01:14:00,69.5,60.1,30.12,ESE,112,1.0,3.0,72,0.00,,SCT040,0.00,0.00,VWS V14.00,2013-01-19 06:14:00,
2013-01-19 01:19:00,69.5,60.1,30.11,ESE,112,0.0,1.0,72,0.00,,SCT040,0.00,0.00,VWS V14.00,2013-01-19 06:19:00,
2013-01-19 01:24:00,69.5,60.5,30.11,ESE,112,0.0,1.0,73,0.00,,SCT040,0.00,0.00,VWS V14.00,2013-01-19 06:24:00,
2013-01-19 01:29:00,69.5,60.1,30.11,ESE,112,3.0,4.0,72,0.00,,SCT040,0.00,0.00,VWS V14.00,2013-01-19 06:29:00,
2013-01-19 01:34:00,69.4,60.0,30.11,ESE,112,1.0,5.0,72,0.00,,SCT040,0.00,0.00,VWS V14.00,2013-01-19 06:34:00,
2013-01-19 01:39:00,69.4,59.6,30.10,ESE,112,3.0,6.0,71,0.00,,SCT040,0.00,0.00,VWS V14.00,2013-01-19 06:39:00,
2013-01-19 01:44:00,69.5,60.1,30.10,ESE,112,0.0,0.0,72,0.00,,SCT040,0.00,0.00,VWS V14.00,2013-01-19 06:44:00,
2013-01-19 01:49:00,69.5,59.7,30.10,ESE,112,1.0,1.0,71,0.00,,SCT040,0.00,0.00,VWS V14.00,2013-01-19 06:49:00,
2013-01-19 01:54:00,69.6,59.8,30.10,ESE,112,0.0,1.0,71,0.00,,SCT040,0.00,0.00,VWS V14.00,2013-01-19 06:54:00,
2013-01-19 01:59:00,69.6,59.8,30.10,ESE,112,0.0,3.0,71,0.00,,SCT040,0.00,0.00,VWS V14.00,2013-01-19 06:59:00,
2013-01-19 02:04:00,69.6,59.8,30.10,ESE,112,0.0,3.0,71,0.00,,SCT040,0.00,0.00,VWS V14.00,2013-01-19 07:04:00,
2013-01-19 02:09:00,69.7,59.9,30.10,ESE,112,0.0,2.0,71,0.00,,SCT040,0.00,0.00,VWS V14.00,2013-01-19 07:09:00,
2013-01-19 02:14:00,69.7,59.9,30.10,ESE,112,0.0,1.0,71,0.00,,SCT040,0.00,0.00,VWS V14.00,2013-01-19 07:14:00,
2013-01-19 02:19:00,69.7,59.9,30.10,ESE,112,2.0,2.0,71,0.00,,SCT040,0.00,0.00,VWS V14.00,2013-01-19 07:19:00,
2013-01-19 02:24:00,69.7,59.9,30.10,ESE,112,0.0,1.0,71,0.00,,SCT040,0.00,0.00,VWS V14.00,2013-01-19 07:24:00,
2013-01-19 02:29:00,69.7,59.9,30.09,ESE,112,0.0,1.0,71,0.00,,SCT040,0.00,0.00,VWS V14.00,2013-01-19 07:29:00,
2013-01-19 02:34:00,69.7,60.3,30.09,ESE,112,0.0,1.0,72,0.00,,SCT040,0.00,0.00,VWS V14.00,2013-01-19 07:34:00,
2013-01-19 02:39:00,69.7,60.3,30.09,ESE,112,3.0,4.0,72,0.00,,SCT040,0.00,0.00,VWS V14.00,2013-01-19 07:39:00,
2013-01-19 02:44:00,69.7,60.3,30.09,ESE,112,0.0,0.0,72,0.00,,SCT040,0.00,0.00,VWS V14.00,2013-01-19 07:44:00,
2013-01-19 02:49:00,69.7,60.7,30.09,ESE,112,0.0,1.0,73,0.00,,SCT040,0.00,0.00,VWS V14.00,2013-01-19 07:49:00,
2013-01-19 02:54:00,69.6,60.2,30.09,ESE,112,0.0,1.0,72,0.00,,SCT040,0.00,0.00,VWS V14.00,2013-01-19 07:54:00,
2013-01-19 02:59:00,69.6,60.2,30.09,ESE,112,0.0,0.0,72,0.00,,SCT040,0.00,0.00,VWS V14.00,2013-01-19 07:59:00,
2013-01-19 03:04:00,69.5,60.5,30.09,ESE,112,0.0,0.0,73,0.00,,SCT040,0.00,0.00,VWS V14.00,2013-01-19 08:04:00,
2013-01-19 03:09:00,69.4,60.4,30.09,ESE,112,0.0,1.0,73,0.00,,SCT040,0.00,0.00,VWS V14.00,2013-01-19 08:09:00,
2013-01-19 03:15:00,69.4,60.8,30.09,ESE,112,0.0,0.0,74,0.00,,SCT040,0.00,0.00,VWS V14.00,2013-01-19 08:15:00,
2013-01-19 03:20:00,69.4,60.8,30.09,ESE,112,0.0,1.0,74,0.00,,SCT040,0.00,0.00,VWS V14.00,2013-01-19 08:20:00,
2013-01-19 03:25:00,69.4,60.8,30.08,ESE,112,0.0,1.0,74,0.00,,SCT040,0.00,0.00,VWS V14.00,2013-01-19 08:25:00,
2013-01-19 03:30:00,69.4,60.8,30.08,ESE,112,0.0,0.0,74,0.00,,SCT040,0.00,0.00,VWS V14.00,2013-01-19 08:30:00,
2013-01-19 03:35:00,69.4,61.1,30.08,ESE,112,0.0,0.0,75,0.00,,SCT040,0.00,0.00,VWS V14.00,2013-01-19 08:35:00,
2013-01-19 03:40:00,69.3,60.7,30.09,ESE,112,0.0,0.0,74,0.00,,SCT040,0.00,0.00,VWS V14.00,2013-01-19 08:40:00,
2013-01-19 03:45:00,69.3,61.0,30.09,ESE,112,0.0,0.0,75,0.00,,SCT040,0.00,0.00,VWS V14.00,2013-01-19 08:45:00,
2013-01-19 03:50:00,69.3,61.0,30.09,ESE,112,0.0,0.0,75,0.00,,SCT040,0.00,0.00,VWS V14.00,2013-01-19 08:50:00,
2013-01-19 03:55:00,69.4,61.1,30.09,ESE,112,0.0,0.0,75,0.00,,SCT040,0.00,0.00,VWS V14.00,2013-01-19 08:55:00,
2013-01-19 04:00:00,69.4,61.5,30.08,ESE,112,0.0,0.0,76,0.00,,SCT040,0.00,0.00,VWS V14.00,2013-01-19 09:00:00,
2013-01-19 04:05:00,69.3,61.4,30.08,ESE,112,0.0,0.0,76,0.00,,SCT040,0.00,0.00,VWS V14.00,2013-01-19 09:05:00,
2013-01-19 04:10:00,69.3,61.4,30.08,ESE,112,0.0,0.0,76,0.00,,SCT040,0.00,0.00,VWS V14.00,2013-01-19 09:10:00,
2013-01-19 04:15:00,69.2,61.3,30.09,ESE,112,0.0,0.0,76,0.00,,SCT040,0.00,0.00,VWS V14.00,2013-01-19 09:15:00,
2013-01-19 04:20:00,69.1,61.2,30.08,ESE,112,0.0,0.0,76,0.00,,SCT040,0.00,0.00,VWS V14.00,2013-01-19 09:20:00,
2013-01-19 04:25:00,69.1,61.2,30.09,ESE,112,0.0,0.0,76,0.00,,SCT040,0.00,0.00,VWS V14.00,2013-01-19 09:25:00,
2013-01-19 04:30:00,69.1,61.6,30.08,ESE,112,0.0,0.0,77,0.00,,SCT040,0.00,0.00,VWS V14.00,2013-01-19 09:30:00,
2013-01-19 04:35:00,69.2,61.7,30.08,ESE,112,0.0,0.0,77,0.00,,SCT040,0.00,0.00,VWS V14.00,2013-01-19 09:35:00,
2013-01-19 04:40:00,68.9,61.8,30.08,ESE,112,0.0,1.0,78,0.00,,SCT040,0.00,0.00,VWS V14.00,2013-01-19 09:40:00,
2013-01-19 04:45:00,68.6,61.8,30.08,ESE,112,0.0,2.0,79,0.00,,SCT040,0.00,0.00,VWS V14.00,2013-01-19 09:45:00,
2013-01-19 04:50:00,68.4,62.3,30.08,ESE,112,0.0,1.0,81,0.00,,SCT040,0.00,0.00,VWS V14.00,2013-01-19 09:50:00,
2013-01-19 04:55:00,68.1,62.4,30.08,ESE,112,0.0,0.0,82,0.00,,SCT040,0.00,0.00,VWS V14.00,2013-01-19 09:55:00,
2013-01-19 05:00:00,67.9,62.5,30.08,ESE,112,0.0,1.0,83,0.00,,SCT040,0.00,0.00,VWS V14.00,2013-01-19 10:00:00,
2013-01-19 05:05:00,67.7,62.4,30.08,ESE,112,0.0,0.0,83,0.00,,SCT040,0.00,0.00,VWS V14.00,2013-01-19 10:05:00,
2013-01-19 05:10:00,67.6,62.6,30.09,ESE,112,0.0,0.0,84,0.00,,SCT040,0.00,0.00,VWS V14.00,2013-01-19 10:10:00,
2013-01-19 05:15:00,67.4,62.4,30.09,ESE,112,2.0,3.0,84,0.00,,SCT040,0.00,0.00,VWS V14.00,2013-01-19 10:15:00,
2013-01-19 05:20:00,67.2,62.5,30.09,ESE,112,0.0,0.0,85,0.00,,SCT040,0.00,0.00,VWS V14.00,2013-01-19 10:20:00,
2013-01-19 05:25:00,67.1,62.5,30.09,ESE,112,0.0,0.0,85,0.00,,SCT040,0.00,0.00,VWS V14.00,2013-01-19 10:25:00,
2013-01-19 05:30:00,67.0,62.3,30.08,ESE,112,0.0,0.0,85,0.00,,SCT040,0.00,0.00,VWS V14.00,2013-01-19 10:30:00,
2013-01-19 05:35:00,67.0,62.7,30.09,ESE,112,0.0,0.0,86,0.00,,SCT040,0.00,0.00,VWS V14.00,2013-01-19 10:35:00,
2013-01-19 05:40:00,66.9,62.2,30.09,ESE,112,0.0,0.0,85,0.00,,SCT040,0.00,0.00,VWS V14.00,2013-01-19 10:40:00,
2013-01-19 05:45:00,66.8,62.5,30.09,ESE,112,0.0,0.0,86,0.00,,SCT040,0.00,0.00,VWS V14.00,2013-01-19 10:45:00,
2013-01-19 05:50:00,66.9,62.6,30.09,ESE,112,0.0,0.0,86,0.00,,SCT040,0.00,0.00,VWS V14.00,2013-01-19 10:50:00,
2013-01-19 05:55:00,66.8,62.5,30.09,ESE,112,0.0,0.0,86,0.00,,SCT040,0.00,0.00,VWS V14.00,2013-01-19 10:55:00,
2013-01-19 06:00:00,66.9,62.6,30.09,ESE,112,0.0,0.0,86,0.00,,SCT040,0.00,0.00,VWS V14.00,2013-01-19 11:00:00,
2013-01-19 06:05:00,66.7,62.4,30.09,ESE,112,0.0,0.0,86,0.00,,SCT040,0.00,0.00,VWS V14.00,2013-01-19 11:05:00,
2013-01-19 06:10:00,66.7,62.4,30.09,ESE,112,0.0,0.0,86,0.00,,SCT040,0.00,0.00,VWS V14.00,2013-01-19 11:10:00,
2013-01-19 07:47:00,64.7,61.1,30.12,ESE,113,1.0,3.0,88,0.00,,SCT040,0.00,0.00,VWS V14.00,2013-01-19 12:47:00,
2013-01-19 07:48:00,64.7,61.1,30.12,ESE,113,0.0,1.0,88,0.00,,SCT040,0.00,0.00,VWS V14.00,2013-01-19 12:48:00,
2013-01-19 07:53:00,64.5,60.9,30.12,ESE,113,0.0,4.0,88,0.00,,SCT040,0.00,0.00,VWS V14.00,2013-01-19 12:53:00,
2013-01-19 07:58:00,64.5,61.2,30.12,ESE,114,0.0,3.0,89,0.00,,SCT040,0.00,5.00,VWS V14.00,2013-01-19 12:58:00,
2013-01-19 08:03:00,64.4,60.8,30.13,ESE,114,1.0,3.0,88,0.00,,SCT040,0.00,5.00,VWS V14.00,2013-01-19 13:03:00,
2013-01-19 08:08:00,64.4,61.1,30.13,ESE,114,0.0,3.0,89,0.00,,SCT040,0.00,7.00,VWS V14.00,2013-01-19 13:08:00,
2013-01-19 08:14:00,64.3,61.0,30.14,ESE,114,3.0,5.0,89,0.00,,SCT040,0.00,5.00,VWS V14.00,2013-01-19 13:14:00,
2013-01-19 08:19:00,64.2,60.9,30.14,ESE,120,4.0,6.0,89,0.00,,SCT040,0.00,7.00,VWS V14.00,2013-01-19 13:19:00,
2013-01-19 08:24:00,64.1,60.8,30.14,ESE,123,0.0,6.0,89,0.00,,SCT040,0.00,9.00,VWS V14.00,2013-01-19 13:24:00,
2013-01-19 08:29:00,64.0,60.7,30.14,South,171,0.0,6.0,89,0.00,,SCT040,0.00,11.00,VWS V14.00,2013-01-19 13:29:00,
2013-01-19 08:34:00,63.9,60.9,30.14,SSW,192,4.0,6.0,90,0.00,,SCT040,0.00,11.00,VWS V14.00,2013-01-19 13:34:00,
2013-01-19 08:39:00,63.8,60.8,30.15,SW,219,3.0,6.0,90,0.00,,SCT040,0.00,11.00,VWS V14.00,2013-01-19 13:39:00,
2013-01-19 08:44:00,63.7,60.7,30.15,WSW,256,3.0,3.0,90,0.00,,SCT040,0.00,12.00,VWS V14.00,2013-01-19 13:44:00,
2013-01-19 08:49:00,63.7,60.7,30.15,WSW,257,5.0,7.0,90,0.00,,SCT040,0.00,12.00,VWS V14.00,2013-01-19 13:49:00,
2013-01-19 08:54:00,63.8,60.8,30.16,WSW,257,5.0,5.0,90,0.00,,SCT040,0.00,11.00,VWS V14.00,2013-01-19 13:54:00,
2013-01-19 08:59:00,63.8,60.8,30.16,WSW,257,0.0,5.0,90,0.00,,SCT040,0.00,12.00,VWS V14.00,2013-01-19 13:59:00,
2013-01-19 09:04:00,63.8,61.1,30.16,WSW,257,5.0,6.0,91,0.00,,SCT040,0.01,14.00,VWS V14.00,2013-01-19 14:04:00,
2013-01-19 09:09:00,63.6,60.9,30.17,WSW,257,2.0,4.0,91,0.00,,SCT040,0.02,14.00,VWS V14.00,2013-01-19 14:09:00,
2013-01-19 09:14:00,63.6,60.9,30.17,WSW,257,0.0,2.0,91,0.14,,SCT040,0.03,18.00,VWS V14.00,2013-01-19 14:14:00,
2013-01-19 09:19:00,63.7,61.0,30.17,West,259,0.0,5.0,91,0.28,,SCT040,0.05,25.00,VWS V14.00,2013-01-19 14:19:00,
2013-01-19 09:24:00,63.8,61.1,30.17,West,259,2.0,4.0,91,0.14,,SCT040,0.06,32.00,VWS V14.00,2013-01-19 14:24:00,
2013-01-19 09:29:00,63.8,61.1,30.17,West,260,2.0,3.0,91,0.08,,SCT040,0.06,30.00,VWS V14.00,2013-01-19 14:29:00,
2013-01-19 09:34:00,63.8,61.1,30.17,West,260,2.0,2.0,91,0.06,,SCT040,0.07,23.00,VWS V14.00,2013-01-19 14:34:00,
2013-01-19 09:39:00,63.9,61.2,30.17,West,260,2.0,2.0,91,0.06,,SCT040,0.07,26.00,VWS V14.00,2013-01-19 14:39:00,
2013-01-19 09:44:00,64.0,61.3,30.17,West,261,0.0,2.0,91,0.05,,SCT040,0.07,28.00,VWS V14.00,2013-01-19 14:44:00,
2013-01-19 09:49:00,64.1,61.4,30.17,West,261,0.0,0.0,91,0.04,,SCT040,0.07,37.00,VWS V14.00,2013-01-19 14:49:00,
2013-01-19 09:54:00,64.3,61.9,30.17,West,261,0.0,3.0,92,0.00,,SCT040,0.07,33.00,VWS V14.00,2013-01-19 14:54:00,
2013-01-19 09:59:00,64.5,62.1,30.17,West,261,3.0,4.0,92,0.00,,SCT040,0.07,39.00,VWS V14.00,2013-01-19 14:59:00,
2013-01-19 10:04:00,64.6,62.2,30.17,West,261,2.0,3.0,92,0.00,,SCT040,0.07,39.00,VWS V14.00,2013-01-19 15:04:00,
2013-01-19 10:09:00,64.5,62.1,30.17,West,261,0.0,2.0,92,0.00,,SCT040,0.07,39.00,VWS V14.00,2013-01-19 15:09:00,
2013-01-19 10:14:00,64.7,62.3,30.17,West,261,0.0,0.0,92,0.00,,SCT040,0.08,40.00,VWS V14.00,2013-01-19 15:14:00,
2013-01-19 10:19:00,64.9,62.5,30.17,West,261,0.0,4.0,92,0.00,,SCT040,0.08,44.00,VWS V14.00,2013-01-19 15:19:00,
2013-01-19 10:24:00,65.1,62.7,30.17,West,261,3.0,3.0,92,0.00,,SCT040,0.08,30.00,VWS V14.00,2013-01-19 15:24:00,
2013-01-19 10:29:00,65.0,62.6,30.17,West,261,5.0,5.0,92,0.00,,SCT040,0.08,25.00,VWS V14.00,2013-01-19 15:29:00,
2013-01-19 10:34:00,65.0,62.6,30.17,West,261,0.0,0.0,92,0.00,,SCT006,0.08,26.00,VWS V14.00,2013-01-19 15:34:00,
2013-01-19 10:39:00,65.2,62.8,30.17,West,261,1.0,1.0,92,0.00,,SCT006,0.09,37.00,VWS V14.00,2013-01-19 15:39:00,
2013-01-19 10:44:00,65.4,63.0,30.17,West,261,0.0,1.0,92,0.00,,SCT006,0.09,42.00,VWS V14.00,2013-01-19 15:44:00,
2013-01-19 10:49:00,65.4,63.0,30.17,West,261,2.0,4.0,92,0.06,,SCT006,0.10,40.00,VWS V14.00,2013-01-19 15:49:00,
2013-01-19 10:54:00,65.4,63.0,30.17,West,261,0.0,0.0,92,0.06,,SCT006,0.10,32.00,VWS V14.00,2013-01-19 15:54:00,
2013-01-19 10:59:00,65.6,63.2,30.17,West,261,0.0,1.0,92,0.04,,SCT006,0.10,32.00,VWS V14.00,2013-01-19 15:59:00,
2013-01-19 11:04:00,65.6,63.2,30.17,West,261,0.0,0.0,92,0.00,,SCT006,0.10,33.00,VWS V14.00,2013-01-19 16:04:00,
2013-01-19 11:09:00,65.8,63.4,30.17,West,261,0.0,0.0,92,0.00,,SCT006,0.11,32.00,VWS V14.00,2013-01-19 16:09:00,
2013-01-19 11:14:00,65.9,63.5,30.16,West,261,0.0,1.0,92,0.11,,SCT006,0.12,30.00,VWS V14.00,2013-01-19 16:14:00,
2013-01-19 11:19:00,66.0,63.6,30.16,West,261,3.0,4.0,92,0.07,,SCT006,0.13,39.00,VWS V14.00,2013-01-19 16:19:00,
2013-01-19 11:24:00,65.9,63.5,30.16,West,261,0.0,0.0,92,0.07,,SCT006,0.13,40.00,VWS V14.00,2013-01-19 16:24:00,
2013-01-19 11:29:00,66.0,63.6,30.16,West,261,0.0,0.0,92,0.10,,SCT006,0.14,42.00,VWS V14.00,2013-01-19 16:29:00,
2013-01-19 11:34:00,66.3,63.9,30.16,West,261,0.0,0.0,92,0.06,,SCT006,0.14,46.00,VWS V14.00,2013-01-19 16:34:00,
2013-01-19 11:39:00,66.4,64.0,30.15,West,261,0.0,1.0,92,0.05,,SCT006,0.15,49.00,VWS V14.00,2013-01-19 16:39:00,
2013-01-19 11:44:00,66.5,64.1,30.15,West,261,0.0,0.0,92,0.05,,SCT006,0.15,53.00,VWS V14.00,2013-01-19 16:44:00,
2013-01-19 11:49:00,66.6,64.2,30.15,West,261,0.0,0.0,92,0.05,,SCT006,0.15,60.00,VWS V14.00,2013-01-19 16:49:00,
2013-01-19 11:54:00,66.8,64.4,30.14,West,261,0.0,0.0,92,0.04,,SCT006,0.16,58.00,VWS V14.00,2013-01-19 16:54:00,
2013-01-19 11:59:00,66.8,64.4,30.14,West,261,0.0,1.0,92,0.04,,SCT006,0.16,46.00,VWS V14.00,2013-01-19 16:59:00,
2013-01-19 12:04:00,66.9,64.5,30.14,West,261,0.0,3.0,92,0.04,,SCT006,0.16,39.00,VWS V14.00,2013-01-19 17:04:00,
2013-01-19 12:09:00,66.8,64.4,30.14,West,261,0.0,2.0,92,0.00,,SCT006,0.16,44.00,VWS V14.00,2013-01-19 17:09:00,
2013-01-19 12:15:00,66.9,64.5,30.14,West,261,0.0,0.0,92,0.00,,SCT006,0.16,62.00,VWS V14.00,2013-01-19 17:15:00,
2013-01-19 12:20:00,67.2,64.8,30.13,West,261,0.0,1.0,92,0.00,,SCT006,0.16,76.00,VWS V14.00,2013-01-19 17:20:00,
2013-01-19 12:25:00,67.4,65.0,30.13,West,261,0.0,1.0,92,0.00,,SCT006,0.16,77.00,VWS V14.00,2013-01-19 17:25:00,
2013-01-19 12:30:00,67.5,65.1,30.12,West,261,2.0,3.0,92,0.00,,SCT006,0.16,70.00,VWS V14.00,2013-01-19 17:30:00,
2013-01-19 12:35:00,67.6,65.2,30.12,West,261,0.0,2.0,92,0.00,,,0.16,76.00,VWS V14.00,2013-01-19 17:35:00,
2013-01-19 12:40:00,67.6,65.2,30.12,West,261,0.0,0.0,92,0.00,,,0.16,58.00,VWS V14.00,2013-01-19 17:40:00,
2013-01-19 12:45:00,67.6,65.2,30.12,West,261,0.0,1.0,92,0.00,,,0.16,51.00,VWS V14.00,2013-01-19 17:45:00,
2013-01-19 12:50:00,67.7,65.3,30.11,West,261,3.0,4.0,92,0.00,,,0.16,53.00,VWS V14.00,2013-01-19 17:50:00,
2013-01-19 12:55:00,67.6,65.2,30.11,West,261,0.0,1.0,92,0.00,,,0.16,62.00,VWS V14.00,2013-01-19 17:55:00,
2013-01-19 13:00:00,67.7,65.3,30.11,West,261,3.0,3.0,92,0.00,,,0.16,63.00,VWS V14.00,2013-01-19 18:00:00,
2013-01-19 13:05:00,67.9,65.5,30.10,West,261,2.0,2.0,92,0.00,,,0.16,62.00,VWS V14.00,2013-01-19 18:05:00,
2013-01-19 13:10:00,67.9,65.5,30.10,West,261,1.0,1.0,92,0.00,,,0.16,56.00,VWS V14.00,2013-01-19 18:10:00,
2013-01-19 13:15:00,67.9,65.5,30.10,West,261,0.0,0.0,92,0.00,,,0.16,56.00,VWS V14.00,2013-01-19 18:15:00,
2013-01-19 13:20:00,68.0,65.6,30.09,West,261,0.0,1.0,92,0.00,,,0.16,54.00,VWS V14.00,2013-01-19 18:20:00,
2013-01-19 13:25:00,68.0,65.6,30.09,West,261,0.0,1.0,92,0.00,,,0.16,56.00,VWS V14.00,2013-01-19 18:25:00,
2013-01-19 13:30:00,67.9,65.5,30.09,West,261,0.0,2.0,92,0.00,,,0.16,51.00,VWS V14.00,2013-01-19 18:30:00,
2013-01-19 13:36:00,68.0,65.6,30.09,West,261,2.0,3.0,92,0.00,,,0.16,49.00,VWS V14.00,2013-01-19 18:36:00,
2013-01-19 13:41:00,68.3,65.9,30.08,West,261,0.0,1.0,92,0.00,,,0.16,51.00,VWS V14.00,2013-01-19 18:41:00,
2013-01-19 13:46:00,68.3,65.9,30.08,West,261,4.0,4.0,92,0.00,,,0.16,53.00,VWS V14.00,2013-01-19 18:46:00,
2013-01-19 13:51:00,68.3,65.9,30.08,NW,317,5.0,5.0,92,0.00,,,0.16,62.00,VWS V14.00,2013-01-19 18:51:00,
2013-01-19 13:56:00,68.3,65.9,30.07,NE,38,5.0,6.0,92,0.00,,,0.16,67.00,VWS V14.00,2013-01-19 18:56:00,
2013-01-19 14:02:00,68.5,66.1,30.07,NE,45,6.0,6.0,92,0.00,,,0.16,70.00,VWS V14.00,2013-01-19 19:02:00,
2013-01-19 14:07:00,68.6,66.2,30.07,NE,46,2.0,4.0,92,0.00,,,0.16,65.00,VWS V14.00,2013-01-19 19:07:00,
2013-01-19 14:12:00,68.7,66.3,30.07,ENE,59,2.0,9.0,92,0.00,,,0.16,65.00,VWS V14.00,2013-01-19 19:12:00,
2013-01-19 14:18:00,68.7,66.3,30.06,ENE,69,6.0,6.0,92,0.00,,,0.16,67.00,VWS V14.00,2013-01-19 19:18:00,
2013-01-19 14:23:00,68.8,66.4,30.06,ENE,72,4.0,7.0,92,0.00,,,0.16,69.00,VWS V14.00,2013-01-19 19:23:00,
2013-01-19 14:28:00,68.8,66.4,30.06,ENE,71,2.0,5.0,92,0.00,,,0.16,60.00,VWS V14.00,2013-01-19 19:28:00,
2013-01-19 14:34:00,68.6,65.9,30.06,East,90,6.0,9.0,91,0.00,,,0.16,56.00,VWS V14.00,2013-01-19 19:34:00,
2013-01-19 14:39:00,68.3,65.9,30.07,East,93,5.0,9.0,92,0.00,,,0.16,56.00,VWS V14.00,2013-01-19 19:39:00,
2013-01-19 14:44:00,68.4,65.7,30.06,East,93,4.0,5.0,91,0.00,,,0.16,58.00,VWS V14.00,2013-01-19 19:44:00,
2013-01-19 14:49:00,68.7,66.3,30.06,East,92,6.0,6.0,92,0.00,,,0.16,60.00,VWS V14.00,2013-01-19 19:49:00,
2013-01-19 14:54:00,68.5,65.8,30.06,East,92,4.0,5.0,91,0.00,,,0.16,62.00,VWS V14.00,2013-01-19 19:54:00,
2013-01-19 14:59:00,68.5,65.8,30.07,East,92,4.0,4.0,91,0.00,,,0.16,62.00,VWS V14.00,2013-01-19 19:59:00,
2013-01-19 15:04:00,68.7,66.0,30.06,East,92,4.0,5.0,91,0.00,,,0.16,67.00,VWS V14.00,2013-01-19 20:04:00,
2013-01-19 15:09:00,68.8,66.1,30.06,East,92,0.0,4.0,91,0.00,,,0.16,70.00,VWS V14.00,2013-01-19 20:09:00,
2013-01-19 15:14:00,68.9,66.2,30.06,East,92,4.0,4.0,91,0.00,,,0.16,72.00,VWS V14.00,2013-01-19 20:14:00,
2013-01-19 15:20:00,68.9,65.8,30.06,East,91,5.0,6.0,90,0.00,,,0.16,70.00,VWS V14.00,2013-01-19 20:20:00,
2013-01-19 15:25:00,69.4,66.7,30.06,East,91,0.0,4.0,91,0.00,,,0.16,70.00,VWS V14.00,2013-01-19 20:25:00,
2013-01-19 15:30:00,69.2,65.8,30.06,East,94,9.0,9.0,89,0.00,,,0.16,63.00,VWS V14.00,2013-01-19 20:30:00,
2013-01-19 15:35:00,69.4,66.0,30.06,ESE,103,5.0,7.0,89,0.00,,SCT018,0.16,51.00,VWS V14.00,2013-01-19 20:35:00,
2013-01-19 15:40:00,69.4,66.0,30.06,ESE,118,5.0,6.0,89,0.00,,SCT018,0.16,53.00,VWS V14.00,2013-01-19 20:40:00,
2013-01-19 15:46:00,69.1,65.7,30.06,East,95,6.0,10.0,89,0.00,,SCT018,0.16,51.00,VWS V14.00,2013-01-19 20:46:00,
2013-01-19 15:51:00,68.9,65.8,30.06,East,95,9.0,10.0,90,0.00,,SCT018,0.16,47.00,VWS V14.00,2013-01-19 20:51:00,
2013-01-19 15:57:00,68.9,65.8,30.06,East,79,5.0,9.0,90,0.00,,SCT018,0.16,44.00,VWS V14.00,2013-01-19 20:57:00,
2013-01-19 16:02:00,68.9,65.8,30.06,East,93,4.0,6.0,90,0.00,,SCT018,0.16,37.00,VWS V14.00,2013-01-19 21:02:00,
2013-01-19 16:07:00,69.0,65.9,30.05,East,88,5.0,6.0,90,0.00,,SCT018,0.16,37.00,VWS V14.00,2013-01-19 21:07:00,
2013-01-19 16:12:00,69.0,65.9,30.05,NE,53,9.0,11.0,90,0.00,,SCT018,0.16,35.00,VWS V14.00,2013-01-19 21:12:00,
2013-01-19 16:17:00,68.9,65.8,30.05,East,94,6.0,11.0,90,0.00,,SCT018,0.16,33.00,VWS V14.00,2013-01-19 21:17:00,
2013-01-19 16:23:00,68.9,65.8,30.05,East,89,5.0,6.0,90,0.00,,SCT018,0.16,26.00,VWS V14.00,2013-01-19 21:23:00,
2013-01-19 16:28:00,69.0,65.9,30.05,East,90,5.0,8.0,90,0.00,,SCT018,0.16,25.00,VWS V14.00,2013-01-19 21:28:00,
2013-01-19 16:33:00,68.9,65.8,30.05,East,91,11.0,11.0,90,0.00,,,0.16,26.00,VWS V14.00,2013-01-19 21:33:00,
2013-01-19 16:39:00,68.8,65.8,30.05,East,101,6.0,11.0,90,0.00,,,0.16,25.00,VWS V14.00,2013-01-19 21:39:00,
2013-01-19 16:44:00,68.6,65.6,30.05,ENE,73,5.0,10.0,90,0.00,,,0.16,25.00,VWS V14.00,2013-01-19 21:44:00,
2013-01-19 16:49:00,68.6,65.6,30.04,East,91,5.0,11.0,90,0.00,,,0.16,23.00,VWS V14.00,2013-01-19 21:49:00,
2013-01-19 16:54:00,68.6,65.6,30.04,ESE,104,3.0,3.0,90,0.00,,,0.16,23.00,VWS V14.00,2013-01-19 21:54:00,
2013-01-19 16:59:00,68.6,65.6,30.05,ENE,71,9.0,9.0,90,0.00,,,0.16,19.00,VWS V14.00,2013-01-19 21:59:00,
2013-01-19 17:05:00,68.5,65.5,30.05,ENE,63,0.0,1.0,90,0.00,,,0.16,14.00,VWS V14.00,2013-01-19 22:05:00,
2013-01-19 17:10:00,68.6,65.6,30.05,ENE,63,0.0,1.0,90,0.00,,,0.16,12.00,VWS V14.00,2013-01-19 22:10:00,
2013-01-19 17:15:00,68.6,65.6,30.05,ENE,63,0.0,0.0,90,0.00,,,0.16,11.00,VWS V14.00,2013-01-19 22:15:00,
2013-01-19 17:20:00,68.7,65.7,30.05,ENE,63,0.0,0.0,90,0.00,,,0.16,9.00,VWS V14.00,2013-01-19 22:20:00,
2013-01-19 17:25:00,68.7,65.7,30.05,ENE,63,0.0,0.0,90,0.00,,,0.16,7.00,VWS V14.00,2013-01-19 22:25:00,
2013-01-19 17:30:00,68.8,65.8,30.05,ENE,63,2.0,2.0,90,0.00,,,0.16,5.00,VWS V14.00,2013-01-19 22:30:00,
2013-01-19 17:35:00,68.7,65.7,30.05,ENE,63,0.0,0.0,90,0.00,,BKN040,0.16,0.00,VWS V14.00,2013-01-19 22:35:00,
2013-01-19 17:40:00,68.8,65.8,30.06,ENE,63,0.0,0.0,90,0.00,,BKN040,0.16,0.00,VWS V14.00,2013-01-19 22:40:00,
2013-01-19 17:45:00,68.8,65.8,30.06,ENE,63,0.0,1.0,90,0.00,,BKN040,0.16,0.00,VWS V14.00,2013-01-19 22:45:00,
2013-01-19 17:50:00,68.8,65.8,30.06,ENE,63,0.0,0.0,90,0.00,,BKN040,0.16,0.00,VWS V14.00,2013-01-19 22:50:00,
2013-01-19 17:56:00,68.9,65.8,30.06,ENE,63,0.0,1.0,90,0.00,,BKN040,0.16,0.00,VWS V14.00,2013-01-19 22:56:00,
2013-01-19 18:01:00,68.9,65.8,30.06,ENE,63,0.0,1.0,90,0.00,,BKN040,0.16,0.00,VWS V14.00,2013-01-19 23:01:00,
2013-01-19 18:06:00,68.9,65.8,30.06,ENE,63,0.0,1.0,90,0.00,,BKN040,0.16,0.00,VWS V14.00,2013-01-19 23:06:00,
2013-01-19 18:11:00,68.9,65.5,30.06,ENE,63,0.0,0.0,89,0.00,,BKN040,0.16,0.00,VWS V14.00,2013-01-19 23:11:00,
2013-01-19 18:16:00,68.9,65.5,30.06,ENE,63,0.0,0.0,89,0.00,,BKN040,0.16,0.00,VWS V14.00,2013-01-19 23:16:00,
2013-01-19 18:21:00,68.9,65.5,30.07,ENE,63,0.0,0.0,89,0.00,,BKN040,0.16,0.00,VWS V14.00,2013-01-19 23:21:00,
2013-01-19 18:26:00,68.9,65.8,30.07,ENE,63,0.0,0.0,90,0.00,,BKN040,0.16,0.00,VWS V14.00,2013-01-19 23:26:00,
2013-01-19 18:31:00,68.9,65.5,30.07,ENE,63,1.0,1.0,89,0.00,,BKN040,0.16,0.00,VWS V14.00,2013-01-19 23:31:00,
2013-01-19 18:37:00,68.9,65.8,30.07,ENE,63,0.0,1.0,90,0.00,,BKN040,0.16,0.00,VWS V14.00,2013-01-19 23:37:00,
2013-01-19 18:42:00,68.9,65.5,30.07,ENE,63,1.0,3.0,89,0.00,,BKN040,0.16,0.00,VWS V14.00,2013-01-19 23:42:00,
2013-01-19 18:47:00,69.0,65.9,30.07,ENE,63,0.0,1.0,90,0.00,,BKN040,0.16,0.00,VWS V14.00,2013-01-19 23:47:00,
2013-01-19 18:52:00,68.9,65.8,30.07,ENE,63,2.0,4.0,90,0.00,,BKN040,0.16,0.00,VWS V14.00,2013-01-19 23:52:00,
2013-01-19 18:57:00,69.0,65.9,30.07,ENE,63,3.0,5.0,90,0.00,,BKN040,0.16,0.00,VWS V14.00,2013-01-19 23:57:00,
2013-01-19 19:03:00,69.0,65.9,30.07,ENE,63,4.0,5.0,90,0.00,,BKN040,0.16,0.00,VWS V14.00,2013-01-20 00:03:00,
2013-01-19 19:08:00,69.0,65.9,30.07,ENE,63,3.0,5.0,90,0.00,,BKN040,0.16,0.00,VWS V14.00,2013-01-20 00:08:00,
2013-01-19 19:13:00,68.9,65.8,30.08,ENE,63,0.0,1.0,90,0.00,,BKN040,0.16,0.00,VWS V14.00,2013-01-20 00:13:00,
2013-01-19 19:18:00,69.0,65.9,30.08,ENE,63,4.0,4.0,90,0.00,,BKN040,0.16,0.00,VWS V14.00,2013-01-20 00:18:00,
2013-01-19 19:23:00,69.0,65.9,30.08,ENE,63,3.0,4.0,90,0.00,,BKN040,0.16,0.00,VWS V14.00,2013-01-20 00:23:00,
2013-01-19 19:28:00,68.9,65.8,30.08,ENE,63,0.0,3.0,90,0.00,,BKN040,0.16,0.00,VWS V14.00,2013-01-20 00:28:00,
2013-01-19 19:33:00,68.9,65.8,30.08,ENE,63,0.0,1.0,90,0.00,,BKN040,0.16,0.00,VWS V14.00,2013-01-20 00:33:00,
2013-01-19 19:38:00,68.9,65.8,30.08,ENE,63,0.0,0.0,90,0.00,,BKN040,0.16,0.00,VWS V14.00,2013-01-20 00:38:00,
2013-01-19 19:43:00,68.9,65.8,30.08,ENE,63,0.0,1.0,90,0.00,,BKN040,0.16,0.00,VWS V14.00,2013-01-20 00:43:00,
2013-01-19 19:48:00,68.8,65.8,30.08,ENE,63,1.0,1.0,90,0.00,,BKN040,0.16,0.00,VWS V14.00,2013-01-20 00:48:00,
2013-01-19 19:53:00,68.8,65.8,30.08,ENE,63,0.0,3.0,90,0.00,,BKN040,0.16,0.00,VWS V14.00,2013-01-20 00:53:00,
2013-01-19 19:58:00,68.8,65.8,30.08,ENE,63,0.0,1.0,90,0.00,,BKN040,0.16,0.00,VWS V14.00,2013-01-20 00:58:00,
2013-01-19 20:04:00,68.7,66.0,30.08,ENE,63,2.0,3.0,91,0.00,,BKN040,0.16,0.00,VWS V14.00,2013-01-20 01:04:00,
2013-01-19 20:09:00,68.6,65.9,30.08,ENE,63,0.0,2.0,91,0.00,,BKN040,0.16,0.00,VWS V14.00,2013-01-20 01:09:00,
2013-01-19 20:14:00,68.6,65.9,30.09,ENE,63,0.0,0.0,91,0.00,,BKN040,0.16,0.00,VWS V14.00,2013-01-20 01:14:00,
2013-01-19 20:19:00,68.6,65.9,30.09,ENE,63,0.0,0.0,91,0.00,,BKN040,0.16,0.00,VWS V14.00,2013-01-20 01:19:00,
2013-01-19 20:24:00,68.5,65.8,30.08,ENE,63,0.0,0.0,91,0.00,,BKN040,0.16,0.00,VWS V14.00,2013-01-20 01:24:00,
2013-01-19 20:29:00,68.5,65.8,30.09,ENE,63,0.0,1.0,91,0.00,,BKN040,0.16,0.00,VWS V14.00,2013-01-20 01:29:00,
2013-01-19 20:34:00,68.4,65.7,30.08,ENE,63,2.0,2.0,91,0.00,,BKN009,0.16,0.00,VWS V14.00,2013-01-20 01:34:00,
2013-01-19 20:39:00,68.3,65.6,30.09,ENE,63,0.0,2.0,91,0.00,,BKN009,0.16,0.00,VWS V14.00,2013-01-20 01:39:00,
2013-01-19 20:44:00,68.3,65.6,30.09,ENE,63,2.0,3.0,91,0.00,,BKN009,0.16,0.00,VWS V14.00,2013-01-20 01:44:00,
2013-01-19 20:49:00,68.1,65.4,30.09,ENE,63,0.0,1.0,91,0.00,,BKN009,0.16,0.00,VWS V14.00,2013-01-20 01:49:00,
2013-01-19 20:55:00,68.0,65.3,30.09,ENE,63,0.0,1.0,91,0.00,,BKN009,0.16,0.00,VWS V14.00,2013-01-20 01:55:00,
2013-01-19 21:00:00,67.9,65.5,30.09,ENE,63,0.0,0.0,92,0.00,,BKN009,0.16,0.00,VWS V14.00,2013-01-20 02:00:00,
2013-01-19 21:05:00,67.9,65.5,30.09,ENE,63,0.0,1.0,92,0.00,,BKN009,0.16,0.00,VWS V14.00,2013-01-20 02:05:00,
2013-01-19 21:10:00,67.8,65.4,30.09,ENE,63,0.0,1.0,92,0.00,,BKN009,0.16,0.00,VWS V14.00,2013-01-20 02:10:00,
2013-01-19 21:15:00,67.8,65.4,30.09,ENE,63,0.0,0.0,92,0.00,,BKN009,0.16,0.00,VWS V14.00,2013-01-20 02:15:00,
2013-01-19 21:20:00,67.8,65.4,30.09,ENE,63,0.0,1.0,92,0.00,,BKN009,0.16,0.00,VWS V14.00,2013-01-20 02:20:00,
2013-01-19 21:25:00,67.7,65.3,30.09,ENE,63,0.0,0.0,92,0.00,,BKN009,0.16,0.00,VWS V14.00,2013-01-20 02:25:00,
2013-01-19 21:30:00,67.7,65.3,30.09,ENE,63,0.0,1.0,92,0.00,,BKN009,0.16,0.00,VWS V14.00,2013-01-20 02:30:00,
2013-01-19 21:35:00,67.6,65.2,30.08,ENE,63,0.0,2.0,92,0.00,,BKN010,0.16,0.00,VWS V14.00,2013-01-20 02:35:00,
2013-01-19 21:41:00,67.6,65.2,30.08,ENE,63,2.0,4.0,92,0.00,,BKN010,0.16,0.00,VWS V14.00,2013-01-20 02:41:00,
2013-01-19 21:46:00,67.5,65.1,30.08,ENE,63,2.0,4.0,92,0.00,,BKN010,0.16,0.00,VWS V14.00,2013-01-20 02:46:00,
2013-01-19 21:51:00,67.4,65.0,30.08,ENE,63,0.0,4.0,92,0.00,,BKN010,0.16,0.00,VWS V14.00,2013-01-20 02:51:00,
2013-01-19 21:56:00,67.3,64.9,30.08,ENE,63,0.0,0.0,92,0.00,,BKN010,0.16,0.00,VWS V14.00,2013-01-20 02:56:00,
2013-01-19 22:01:00,67.2,64.8,30.08,ENE,63,3.0,4.0,92,0.00,,BKN010,0.16,0.00,VWS V14.00,2013-01-20 03:01:00,
2013-01-19 22:06:00,67.0,64.6,30.08,ENE,63,3.0,4.0,92,0.00,,BKN010,0.16,0.00,VWS V14.00,2013-01-20 03:06:00,
2013-01-19 22:11:00,66.8,64.4,30.08,ENE,63,2.0,3.0,92,0.00,,BKN010,0.16,0.00,VWS V14.00,2013-01-20 03:11:00,
2013-01-19 22:17:00,66.7,64.3,30.08,ENE,63,0.0,0.0,92,0.00,,BKN010,0.16,0.00,VWS V14.00,2013-01-20 03:17:00,
2013-01-19 22:22:00,66.7,64.3,30.07,ENE,63,1.0,2.0,92,0.00,,BKN010,0.16,0.00,VWS V14.00,2013-01-20 03:22:00,
2013-01-19 22:28:00,66.6,64.2,30.07,ENE,63,0.0,0.0,92,0.00,,BKN010,0.16,0.00,VWS V14.00,2013-01-20 03:28:00,
2013-01-19 22:33:00,66.6,64.2,30.07,ENE,63,0.0,0.0,92,0.00,,BKN015,0.16,0.00,VWS V14.00,2013-01-20 03:33:00,
2013-01-19 22:38:00,66.5,64.1,30.07,ENE,63,0.0,0.0,92,0.00,,BKN015,0.16,0.00,VWS V14.00,2013-01-20 03:38:00,
2013-01-19 22:43:00,66.5,64.1,30.07,ENE,63,0.0,1.0,92,0.00,,BKN015,0.16,0.00,VWS V14.00,2013-01-20 03:43:00,
2013-01-19 22:48:00,66.4,64.0,30.07,ENE,63,0.0,1.0,92,0.00,,BKN015,0.16,0.00,VWS V14.00,2013-01-20 03:48:00,
2013-01-19 22:53:00,66.3,63.9,30.07,ENE,63,0.0,1.0,92,0.00,,BKN015,0.16,0.00,VWS V14.00,2013-01-20 03:53:00,
2013-01-19 22:58:00,66.2,63.8,30.07,ENE,63,0.0,1.0,92,0.00,,BKN015,0.16,0.00,VWS V14.00,2013-01-20 03:58:00,
2013-01-19 23:03:00,66.2,63.8,30.07,ENE,63,0.0,0.0,92,0.00,,BKN015,0.16,0.00,VWS V14.00,2013-01-20 04:03:00,
2013-01-19 23:08:00,66.1,63.7,30.07,ENE,63,0.0,1.0,92,0.00,,BKN015,0.16,0.00,VWS V14.00,2013-01-20 04:08:00,
2013-01-19 23:13:00,66.1,63.7,30.07,ENE,63,0.0,2.0,92,0.00,,BKN015,0.16,0.00,VWS V14.00,2013-01-20 04:13:00,
2013-01-19 23:19:00,66.1,63.7,30.07,ENE,63,0.0,0.0,92,0.00,,BKN015,0.16,0.00,VWS V14.00,2013-01-20 04:19:00,
2013-01-19 23:24:00,66.0,63.6,30.06,ENE,63,0.0,2.0,92,0.00,,BKN015,0.16,0.00,VWS V14.00,2013-01-20 04:24:00,
2013-01-19 23:29:00,66.0,63.6,30.06,ENE,63,0.0,1.0,92,0.00,,BKN015,0.16,0.00,VWS V14.00,2013-01-20 04:29:00,
2013-01-19 23:34:00,65.9,63.5,30.06,ENE,63,0.0,0.0,92,0.00,,BKN015,0.16,0.00,VWS V14.00,2013-01-20 04:34:00,
2013-01-19 23:39:00,65.9,63.5,30.06,ENE,63,0.0,0.0,92,0.00,,BKN015,0.16,0.00,VWS V14.00,2013-01-20 04:39:00,
2013-01-19 23:44:00,65.9,63.5,30.06,ENE,63,0.0,1.0,92,0.00,,BKN015,0.16,0.00,VWS V14.00,2013-01-20 04:44:00,
2013-01-19 23:49:00,65.8,63.4,30.06,ENE,63,0.0,0.0,92,0.00,,BKN015,0.16,0.00,VWS V14.00,2013-01-20 04:49:00,
2013-01-19 23:54:00,65.8,63.4,30.06,ENE,63,0.0,0.0,92,0.00,,BKN015,0.16,0.00,VWS V14.00,2013-01-20 04:54:00,
2013-01-19 23:59:00,65.8,63.4,30.06,ENE,63,0.0,0.0,92,0.00,,BKN015,0.16,0.00,VWS V14.00,2013-01-20 04:59:00,